• Join FlightAware (Why Join?)
  • Login
  • US Flag 
01:11AM EDT


 

Airport Tracker/Info


-or-


 

Live Flight TrackerFlight Track Log ✈ SWA448 ✈ 05-Dec-2013 ✈ KLAX - KSJC

Flight Track Log - Related Links

Times and Time Zones

All times are in EST time to prevent confusion due to time zone crossing. See the SWA448 flight status page for this flight to view local times or setup timezone preferences in your user account.

Time Position Orientation Groundspeed Altitude Reporting Facility
EST Latitude Longitude Course Direction KTS MPH feet Rate Location/Type
08:11PM 33.9381 -118.5347 268° West 212 244 4,000  Level Los Angeles Center
08:12PM 33.9297 -118.6253 264° West 271 312 7,000 2,700 Climbing Los Angeles Center
08:13PM 33.9150 -118.7381 261° West 276 318 10,200 2,400 Climbing Los Angeles Center
08:14PM 33.9019 -118.8322 261° West 310 357 12,000 1,500 Climbing Los Angeles Center
08:15PM 33.8794 -118.9694 259° West 348 400 13,300 1,920 Climbing Los Angeles Center
08:16PM 33.8656 -119.0828 262° West 346 398 16,000 2,160 Climbing Los Angeles Center
08:17PM 33.9208 -119.1719 307° West 334 384 17,800 2,340 Climbing Los Angeles Center
08:18PM 34.0008 -119.2392 325° Northwest 351 404 20,900 2,520 Climbing Los Angeles Center
08:19PM 34.0825 -119.3097 324° Northwest 358 412 23,100 1,500 Climbing Los Angeles Center
08:20PM 34.1633 -119.3839 323° Northwest 362 417 24,000 660 Climbing Los Angeles Center
08:21PM 34.2625 -119.4708 324° Northwest 367 422 24,500 1,260 Climbing Los Angeles Center
08:22PM 34.3478 -119.5439 325° Northwest 372 428 26,700 1,680 Climbing Los Angeles Center
08:23PM 34.4342 -119.6197 324° Northwest 380 437 28,000 1,260 Climbing Los Angeles Center
08:24PM 34.5200 -119.6953 324° Northwest 382 440 29,400 1,920 Climbing Los Angeles Center
08:25PM 34.6175 -119.7803 324° Northwest 383 441 32,000 2,280 Climbing Los Angeles Center
08:26PM 34.7081 -119.8608 324° Northwest 377 434 34,200 1,860 Climbing Los Angeles Center
08:27PM 34.7908 -119.9339 324° Northwest 372 428 35,900 1,320 Climbing Los Angeles Center
08:29PM 34.8744 -120.0069 324° Northwest 369 425 37,300 900 Climbing Los Angeles Center
08:30PM 34.9742 -120.0953 324° Northwest 370 426 38,000 300 Climbing Los Angeles Center
08:31PM 35.0639 -120.1761 324° Northwest 368 423 38,000  Level Los Angeles Center
08:32PM 35.1450 -120.2492 324° Northwest 366 421 38,000  Level Los Angeles Center
08:33PM 35.2272 -120.3222 324° Northwest 366 421 38,000  Level Los Angeles Center
08:34PM 35.3078 -120.3947 324° Northwest 364 419 38,000  Level Los Angeles Center
08:35PM 35.3903 -120.4697 323° Northwest 368 423 38,000  Level Los Angeles Center
08:36PM 35.4883 -120.5594 323° Northwest 370 426 38,000  Level Los Angeles Center
08:37PM 35.5692 -120.6336 323° Northwest 366 421 38,000  Level Los Angeles Center
08:38PM 35.6525 -120.7089 324° Northwest 367 422 38,000  Level Los Angeles Center
08:39PM 35.7019 -120.7542 323° Northwest 366 421 38,000 -300 Level Oakland Center
08:40PM 35.8003 -120.8433 324° Northwest 366 421 37,500 -1,440 Descending Oakland Center
08:41PM 35.8794 -120.9158 323° Northwest 357 411 35,100 -2,220 Descending Oakland Center
08:42PM 35.9567 -120.9861 324° Northwest 346 398 33,000 -1,980 Descending Oakland Center
08:43PM 36.0317 -121.0542 324° Northwest 336 387 31,100 -1,920 Descending Oakland Center
08:44PM 36.1047 -121.1156 326° Northwest 321 369 29,200 -1,860 Descending Oakland Center
08:45PM 36.1733 -121.1767 324° Northwest 307 353 27,400 -1,680 Descending Oakland Center
08:46PM 36.2408 -121.2333 326° Northwest 293 337 25,800 -1,680 Descending Oakland Center
08:47PM 36.3081 -121.2919 325° Northwest 294 338 24,000 -1,800 Descending Oakland Center
08:48PM 36.3778 -121.3547 324° Northwest 308 354 22,200 -1,800 Descending Oakland Center
08:49PM 36.4458 -121.4114 326° Northwest 296 341 20,400 -1,920 Descending Oakland Center
08:50PM 36.5250 -121.4831 324° Northwest 292 336 18,400 -2,280 Descending Oakland Center
08:51PM 36.6039 -121.5192 340° North 303 349 15,800 -2,340 Descending Oakland Center
08:52PM 36.6864 -121.5469 345° North 306 352 13,700 -2,400 Descending Oakland Center
08:53PM 36.7669 -121.5753 344° North 301 346 10,900 -2,040 Descending Oakland Center
08:54PM 36.8439 -121.6017 345° North 282 325 9,600 -1,260 Descending Oakland Center
08:55PM 36.9125 -121.6269 344° North 263 303 8,400 -1,200 Descending Oakland Center
08:56PM 36.9814 -121.6525 343° North 259 298 7,200 -1,260 Descending Oakland Center
08:57PM 37.0514 -121.6764 345° North 260 299 5,900 -1,080 Descending Oakland Center
08:58PM 37.1219 -121.7011 344° North 262 302 5,000 -660 Descending Oakland Center
08:59PM 37.1833 -121.7333 337° Northwest 239 275 4,700 -720 Descending Northern Cal TRACON
09:00PM 37.2333 -121.7833 321° Northwest 219 252 3,800 -1,200 Descending Northern Cal TRACON
09:01PM 37.2667 -121.8333 310° West 188 216 2,400 -1,200 Descending Northern Cal TRACON
09:02PM 37.3000 -121.8667 322° Northwest 153 176 1,500 -840 Descending Northern Cal TRACON
09:03PM 37.3333 -121.9000 322° Northwest 127 146 800 -720 Descending Northern Cal TRACON
09:06PM 37.3500 -121.9167 North  Level FlightAware Approximate